Regional Weather Roundup
Issued by NWS Upton, NY

Current Version | Previous Version | Graphics & Text | Print | Product List | Glossary Off
Versions: 1 2 3 4 5 6 7 8 9 10 11 12 13 14 15 16 17 18 19 20 21 22 23 24 25 26 27

000
ASUS41 KOKX 231207
RWROKX

REGIONAL WEATHER ROUNDUP
NATIONAL WEATHER SERVICE NEW YORK NY
800 AM EDT THU MAR 23 2017

NOTE: "FAIR" INDICATES FEW OR NO CLOUDS BELOW 12,000 FEET WITH NO
SIGNIFICANT WEATHER AND/OR OBSTRUCTIONS TO VISIBILITY.

NYZ071-072-176-178-NJZ106-104-231300-
NEW YORK CITY METRO AREA

CITY           SKY/WX    TMP DP  RH WIND       PRES   REMARKS
Central Park   SUNNY     24   6  46 NW3       30.60R
Wall St Helipt SUNNY     27  10  50 W6        30.60R WCI  20
LaGuardia APRT SUNNY     27   7  42 NW12      30.58R WCI  17
Kennedy INTL   SUNNY     27   5  39 N9        30.59R WCI  18
Breezy Point     N/A    N/A N/A N/A NW10G16     N/A
Newark/Liberty MOSUNNY   25   5  42 NW12      30.59R WCI  14
Teterboro      SUNNY     25   8  48 NW13      30.58R WCI  14
$$

NYZ177-179-078>081-231300-
LONG ISLAND NEW YORK

CITY           SKY/WX    TMP DP  RH WIND       PRES   REMARKS
Jones Beach      N/A    N/A N/A N/A NW10        N/A
Matinecock PT    N/A    N/A N/A N/A NW12        N/A
Farmingdale    SUNNY     23   7  50 NW6       30.57R WCI  16
MacArthur/ISP  SUNNY     25   1  35 NW16      30.55R WCI  12
Shirley        SUNNY     24   2  38 N10       30.56R WCI  14
Westhampton    SUNNY     24   1  36 NW9       30.56R WCI  14
East Hampton     N/A     24  -3  31 NW9G18    30.53R WCI  14
Montauk          N/A     24  -2  32 NW12      30.54R WCI  13
$$

NYZ052-065-067-231300-
HUDSON VALLEY

CITY           SKY/WX    TMP DP  RH WIND       PRES   REMARKS
White Plains   SUNNY     22   7  52 NW8       30.54R WCI  12
Newburgh       SUNNY     16   7  67 W9        30.55R WCI   4
Montgomery     SUNNY     16   8  71 S3        30.54R
Poughkeepsie   SUNNY     12   6  77 CALM      30.57R
Albany         SUNNY     16   0  49 NW9       30.56R WCI   4
$$

NJZ001-105-106-008-010-013-015-019>022-104-231300-
NEW JERSEY

CITY           SKY/WX    TMP DP  RH WIND       PRES   REMARKS
Newark/Liberty MOSUNNY   25   5  42 NW12      30.59R WCI  14
Teterboro      SUNNY     25   8  48 NW13      30.58R WCI  14
Caldwell       SUNNY     23   5  46 CALM      30.59R
Somerville     MOSUNNY   22  11  62 NW5       30.59R WCI  16
Linden           N/A     25   5  43 N7        30.60R WCI  17
Sussex         SUNNY     20   5  52 W3        30.55R
Andover          N/A     19   6  57 VRB3      30.56R
Trenton        MOSUNNY   23   9  55 NW7       30.59R WCI  15
Millville      MOSUNNY   24   8  50 NW5       30.62R WCI  18
Atlantic City  MOSUNNY   24   7  48 NW9       30.61R WCI  14
Wrightstown    MOSUNNY   23   8  52 W6        30.58R WCI  16
Toms River     SUNNY     22  10  60 NW6       30.61R WCI  14
Belmar         SUNNY     23   9  55 NW5       30.60R WCI  17
$$

PAZ047>061-062-071-231300-
EASTERN PENNSYLVANIA

CITY           SKY/WX    TMP DP  RH WIND       PRES   REMARKS
Philadelphia   NOT AVBL
Allentown      SUNNY     23   7  50 NW6       30.60R WCI  16
Scranton       SUNNY     19   7  59 CALM      30.56R
$$

CTZ002-004>006-009-010-012-RIZ004-006-007-MAZ004-011-015-231300-
SOUTHERN NEW ENGLAND
 IN CT

CITY           SKY/WX    TMP DP  RH WIND       PRES   REMARKS
Bradley INTL   SUNNY     18  -1  43 NW3       30.52R
Hartford       SUNNY     21  -2  36 W5        30.54R WCI  15
Danbury        SUNNY     21  -4  33 NW9       30.54R WCI  11
Wtrbury/Oxford SUNNY     18  -2  41 N3        30.50R
Bridgeport     SUNNY     24  -1  33 NW6       30.56R WCI  17
Meriden        SUNNY     19   4  51 CALM      30.54R
New Haven      SUNNY     22   3  44 NW9       30.55R WCI  12
Chester          N/A     19  -4  35 NW6       30.50R WCI  11
Groton         SUNNY     21  -2  36 W10       30.53R WCI  10
Wilimantic     SUNNY     20   0  41 CALM      30.51R

 IN RI

CITY           SKY/WX    TMP DP  RH WIND       PRES   REMARKS
Providence     NOT AVBL
Block Island   SUNNY     22   1  40 NW10      30.52R WCI  11
Westerly       SUNNY     20   0  41 VRB5      30.52R WCI  13
 IN MA

CITY           SKY/WX    TMP DP  RH WIND       PRES   REMARKS
Boston         MOSUNNY   20  -5  33 NW20G26   30.48R WCI   4
Worcester      SUNNY     15  -7  37 NW14G20   30.41R WCI   0
Westfield      SUNNY     13   2  61 CALM      30.51R
Provincetown   SUNNY     22   7  52 NW18G30   30.43R WCI   7
Nantucket      SUNNY     22   3  44 NW21G29   30.44R WCI   6
$$

ANZ330-335-338-340-345-350-353-355-231300-
COASTAL MARINE OBSERVATIONS


STATION/POSITION TIME  SKY/WX   TEMP    WIND        PRES    VSBY  WAVE
                                AIR SEA DIR/SP/G                  HT/PER
                 (UTC)          (F)     (DEG/KT/KT) (MB)    (MI)  (FT/S)
NY HARB ENTRANCE 1150            27 41  330/ 12/ 16 1035.4          2/ 4
20 S FIRE ISLAND 1150            27 40  330/ 14/ 19 1034.7          3/ 4
GREAT SOUTH BAY  NOT AVBL
23 SSW MONTAUK P 1050            25 42              1033.2          4/ 5
15 E BARNEGAT LI 1130               42                N/A           3/ 5
HUDSON CANYON    1050            30 45  360/ 21/ 29 1033.1          9/ 7
KINGS POINT      1148            24 37              1035.5
EXECUTION ROCKS  NOT AVBL
CENTRAL LI SOUND 1130            25     320/ 12/ 16   N/A           1/ 3
EASTERN LI SOUND NOT AVBL
ROBBINS REEF     1148            24     320/  9/ 12 1035.9
$$


>>>>>>>>>>>>>>>>>>>>>>>>>>>> KEY <<<<<<<<<<<<<<<<<<<<<<<<<<<
>                                                          <
>     SKY/WX - Sky Condition/Present Weather               <
>     TMP    - Temperature in Fahrenheit                   <
>     DP     - Dew Point in Fahrenheit                     <
>     RH     - Relative Humidity in Percent                <
>     WIND   - Direction (from) and Speed in MPH           <
>     PRES   - Mean Sea Level Pressure (inches of Hg)      <
>     WCI    - Wind Chill Index                            <
>     VSB    - VISIBILITY IN MILES                         <
>     HX     - HEAT INDEX                                  <
>     TC     - TEMPERATURE IN CELSIUS                      <
>     VRB    - VARIABLE WIND DIRECTION                     <
>                                                          <
>>>>>>>>>>>>>>>>>>>>>>>>>>>> KEY <<<<<<<<<<<<<<<<<<<<<<<<<<<




USA.gov is the U.S. government's official web portal to all federal, state and local government web resources and services.